Back to catalog

BREEZE-KM R/B

AlivePO
NORAD 40556·ROCKET BODY·🇷🇺 Russia

Launched Mar 31, 2015 from Plesetsk Cosmodrome

Loading…

Next Passes (next 24 hours)

TLE

FreshSource: Space-Track

Epoch: Sep 14, 2026, 15:42 UTC

1 40556U 15020E   26257.65437022  .00000026  00000-0  60430-4 0  9994
2 40556  82.4913 146.3550 0214456 198.7626 160.5485 12.80561932535609

Track BREEZE-KM R/B in real time with AllMySat

Download on the App Store